Date String (YYYY-MM-DD hh:mm:ss) UTC,Instrument flags,Ambient pressure (hPa),Sample flow (lpm),Bypass flow (lpm),Sample temperature (°C),Ambient temperature (°C),ASC tube jacket temperature (°C),LED temperature (°C),Box temperature (°C),Sample RH (%),Span deviation,Mass concentration (μg/m³),Mass concentration (μg/m³),Mass concentration (μg/m³)
DateTimeUTC,F1_M11,P_M11,Q1_M11,Q2_M11,T1_M11,T2_M11,T3_M11,T4_M11,T5_M11,U1_M11,ZSPAN_M11,X0_M11,X2_M11,X1_M11
2021-11-01 23:00:00,,0832.5,4.99,0.00,23.7,22.9,00.0,32.7,25.5,18.9,0000.0,0008.24,0006.91,0006.75
2021-11-01 23:01:00,,0832.5,5.00,0.00,23.7,22.9,00.0,32.7,25.5,19.0,0000.0,0008.30,0006.90,0006.73
2021-11-01 23:02:00,,0832.5,5.00,0.00,23.7,22.9,00.0,32.7,25.5,19.0,0000.0,0008.39,0006.89,0006.72
2021-11-01 23:03:00,,0832.5,5.01,0.00,23.7,22.9,00.0,32.7,25.5,19.1,0000.0,0008.41,0006.86,0006.70
2021-11-01 23:04:00,,0832.4,4.99,0.00,23.7,22.9,00.0,32.7,25.5,19.2,0000.0,0008.91,0006.84,0006.69
2021-11-01 23:05:00,,0832.4,5.01,0.00,23.7,22.9,00.0,32.7,25.5,19.1,0000.0,0008.97,0006.82,0006.68
2021-11-01 23:06:00,,0832.5,4.99,0.00,23.7,22.9,00.0,32.7,25.5,19.0,0000.0,0008.99,0006.81,0006.67
2021-11-01 23:07:00,,0832.5,4.99,0.00,23.7,22.8,00.0,32.7,25.5,19.0,0000.0,0009.19,0006.79,0006.66
2021-11-01 23:08:00,,0832.5,5.00,0.00,23.7,22.8,00.0,32.7,25.5,19.0,0000.0,0009.63,0006.82,0006.65
2021-11-01 23:09:00,,0832.5,4.99,0.00,23.6,22.8,00.0,32.7,25.5,19.0,0000.0,0009.69,0006.82,0006.63
2021-11-01 23:10:00,,0832.5,5.00,0.00,23.6,22.8,00.0,32.7,25.5,19.1,0000.0,0009.74,0006.82,0006.62
2021-11-01 23:11:00,,0832.5,4.99,0.00,23.6,22.8,00.0,32.7,25.4,19.1,0000.0,0009.72,0006.81,0006.62
2021-11-01 23:12:00,,0832.5,5.00,0.00,23.6,22.8,00.0,32.7,25.4,19.2,0000.0,0009.75,0006.81,0006.61
2021-11-01 23:13:00,,0832.5,5.01,0.00,23.6,22.8,00.0,32.7,25.4,19.3,0000.0,0009.74,0006.79,0006.57
2021-11-01 23:14:00,,0832.5,4.99,0.00,23.6,22.8,00.0,32.7,25.4,19.3,0000.0,0009.74,0006.77,0006.54
2021-11-01 23:15:00,,0832.5,5.01,0.00,23.6,22.8,00.0,32.7,25.4,19.4,0000.0,0009.21,0006.75,0006.50
2021-11-01 23:16:00,,0832.4,5.01,0.00,23.6,22.8,00.0,32.7,25.4,19.2,0000.0,0009.13,0006.71,0006.47
2021-11-01 23:17:00,,0832.4,5.00,0.00,23.6,22.8,00.0,32.7,25.4,19.2,0000.0,0009.08,0006.68,0006.44
2021-11-01 23:18:00,,0832.5,5.01,0.00,23.6,22.8,00.0,32.7,25.4,19.1,0000.0,0008.93,0006.65,0006.42
2021-11-01 23:19:00,,0832.5,4.99,0.00,23.6,22.7,00.0,32.6,25.3,19.1,0000.0,0008.67,0006.58,0006.38
2021-11-01 23:20:00,,0832.5,5.00,0.00,23.6,22.7,00.0,32.6,25.3,19.2,0000.0,0009.02,0006.56,0006.37
2021-11-01 23:21:00,,0832.5,5.00,0.00,23.6,22.8,00.0,32.6,25.3,19.3,0000.0,0009.02,0006.56,0006.35
2021-11-01 23:22:00,,0832.5,5.00,0.00,23.6,22.8,00.0,32.6,25.4,19.2,0000.0,0009.00,0006.53,0006.32
2021-11-01 23:23:00,,0832.6,4.99,0.00,23.6,22.8,00.0,32.6,25.4,19.2,0000.0,0008.88,0006.48,0006.30
2021-11-01 23:24:00,,0832.6,5.00,0.00,23.6,22.8,00.0,32.6,25.3,19.1,0000.0,0008.80,0006.45,0006.30
2021-11-01 23:25:00,,0832.6,5.01,0.00,23.6,22.8,00.0,32.6,25.3,19.1,0000.0,0008.75,0006.44,0006.30
2021-11-01 23:26:00,,0832.6,5.01,0.00,23.5,22.7,00.0,32.6,25.3,19.1,0000.0,0008.74,0006.44,0006.30
2021-11-01 23:27:00,,0832.6,5.00,0.00,23.5,22.7,00.0,32.6,25.3,19.1,0000.0,0008.76,0006.44,0006.29
2021-11-01 23:28:00,,0832.7,4.99,0.00,23.5,22.6,00.0,32.6,25.2,19.2,0000.0,0008.79,0006.43,0006.27
2021-11-01 23:29:00,,0832.7,5.00,0.00,23.4,22.5,00.0,32.6,25.2,19.2,0000.0,0009.23,0006.45,0006.25
2021-11-01 23:30:00,,0832.7,5.00,0.00,23.4,22.5,00.0,32.6,25.1,19.4,0000.0,0009.14,0006.45,0006.23
2021-11-01 23:31:00,,0832.7,5.01,0.00,23.4,22.5,00.0,32.5,25.1,19.5,0000.0,0008.63,0006.44,0006.22
2021-11-01 23:32:00,,0832.7,4.99,0.00,23.4,22.6,00.0,32.5,25.2,19.4,0000.0,0008.60,0006.43,0006.21
2021-11-01 23:33:00,,0832.7,5.00,0.00,23.4,22.6,00.0,32.5,25.2,19.4,0000.0,0008.59,0006.43,0006.22
2021-11-01 23:34:00,,0832.8,4.99,0.00,23.4,22.6,00.0,32.5,25.2,19.4,0000.0,0008.65,0006.45,0006.22
2021-11-01 23:35:00,,0832.7,5.00,0.00,23.4,22.6,00.0,32.5,25.2,19.4,0000.0,0008.68,0006.47,0006.22
2021-11-01 23:36:00,,0832.8,5.00,0.00,23.4,22.6,00.0,32.5,25.2,19.5,0000.0,0009.75,0006.47,0006.22
2021-11-01 23:37:00,,0832.7,5.00,0.00,23.4,22.7,00.0,32.5,25.2,19.6,0000.0,0010.09,0006.45,0006.19
2021-11-01 23:38:00,,0832.7,5.01,0.00,23.4,22.6,00.0,32.5,25.2,19.5,0000.0,0010.11,0006.44,0006.18
2021-11-01 23:39:00,,0832.8,5.00,0.00,23.4,22.6,00.0,32.5,25.2,19.4,0000.0,0010.53,0006.46,0006.18
2021-11-01 23:40:00,,0832.9,5.00,0.00,23.4,22.6,00.0,32.5,25.2,19.5,0000.0,0010.32,0006.45,0006.17
2021-11-01 23:41:00,,0832.9,4.99,0.00,23.4,22.6,00.0,32.5,25.2,19.5,0000.0,0010.09,0006.41,0006.17
2021-11-01 23:42:00,,0832.8,5.00,0.00,23.4,22.6,00.0,32.5,25.2,19.5,0000.0,0010.09,0006.40,0006.17
2021-11-01 23:43:00,,0832.8,4.99,0.00,23.4,22.6,00.0,32.5,25.2,19.5,0000.0,0010.12,0006.41,0006.17
2021-11-01 23:44:00,,0832.8,5.01,0.00,23.4,22.6,00.0,32.5,25.2,19.5,0000.0,0010.09,0006.38,0006.15
2021-11-01 23:45:00,,0832.8,4.99,0.00,23.4,22.6,00.0,32.5,25.2,19.5,0000.0,0010.13,0006.36,0006.13
2021-11-01 23:46:00,,0832.9,5.01,0.00,23.4,22.6,00.0,32.5,25.2,19.5,0000.0,0010.26,0006.35,0006.12
2021-11-01 23:47:00,,0832.9,4.99,0.00,23.4,22.6,00.0,32.5,25.2,19.5,0000.0,0009.50,0006.34,0006.10
2021-11-01 23:48:00,,0832.9,4.99,0.00,23.4,22.6,00.0,32.4,25.2,19.4,0000.0,0008.96,0006.33,0006.09
2021-11-01 23:49:00,,0832.8,5.00,0.00,23.4,22.6,00.0,32.4,25.1,19.4,0000.0,0008.95,0006.33,0006.08
2021-11-01 23:50:00,,0832.8,4.99,0.00,23.4,22.6,00.0,32.4,25.2,19.5,0000.0,0008.64,0006.29,0006.06
2021-11-01 23:51:00,,0832.8,5.01,0.00,23.4,22.7,00.0,32.4,25.2,19.6,0000.0,0008.56,0006.24,0006.04
2021-11-01 23:52:00,,0832.8,4.99,0.00,23.4,22.7,00.0,32.4,25.2,19.6,0000.0,0008.85,0006.21,0006.01
2021-11-01 23:53:00,,0832.8,5.00,0.00,23.4,22.7,00.0,32.4,25.2,19.5,0000.0,0008.91,0006.22,0006.00
2021-11-01 23:54:00,,0832.9,5.02,0.00,23.4,22.7,00.0,32.4,25.2,19.5,0000.0,0009.05,0006.21,0005.99
2021-11-01 23:55:00,,0832.9,4.99,0.00,23.4,22.7,00.0,32.4,25.2,19.4,0000.0,0009.04,0006.19,0005.98
2021-11-01 23:56:00,,0832.9,4.99,0.00,23.4,22.7,00.0,32.4,25.2,19.4,0000.0,0009.05,0006.18,0005.95
2021-11-01 23:57:00,,0832.9,5.00,0.00,23.4,22.7,00.0,32.4,25.2,19.4,0000.0,0008.85,0006.13,0005.92
2021-11-01 23:58:00,,0833.0,5.00,0.00,23.4,22.7,00.0,32.4,25.2,19.3,0000.0,0008.69,0006.09,0005.89
2021-11-01 23:59:00,,0833.1,5.01,0.00,23.4,22.7,00.0,32.4,25.2,19.3,0000.0,0008.64,0006.05,0005.87
